Location: Juzet
(42.9779°N, 0.7597°E)
Time: 18:53:06
(UTC+00:00)

Meteor 2-6 Rocket - Pass Details

Date: 14 July 2020
Orbit: 804 x 916 km, 81.3° (Epoch: 12 August)

Event Time Altitude Azimuth Distance (km) Brightness Sun altitude
Rises 23:58:25 0° 345° (NNW) 3,346 8.6 -25.4°
Reaches altitude 10° 00:00:53 10° 340° (NNW) 2,402 7.5 -25.4°
Maximum altitude 00:06:06 52° 266° (W) 995 4.4 -25.4°
Enters shadow 00:06:30 51° 249° (WSW) 1,009 4.4 -25.4°
